[[{"header":{"parameterUnit":"m.s-1","parameterCategory":2,"la1":30.2991,"la2":30.254,"lo1":-89.0895,"lo2":-89.0444,"dy":0.0017,"dx":0.0017,"nx":28,"ny":28,"refTime":"2023-08-27T21:00:00:Z","depth":"0","parameterNumber":2,"parameterNumberName":"U-component_of_CURRENTS"},"data":[0,0,0,0,0,0,0,0,0,0,0,0,0,0,0,0,0,0,0,0,0,0,0,0,0,0,0,0,0,0,0,0,0,0,0,0,0,0,0,0,0,0,0,0,0,0,0,0,0,0,0,0,0,0,0,0,0,0,0.2631,0.2632,0,0.2651,0.2651,0.2652,0.2652,0.2652,0.2652,0.2652,0.2675,0.2675,0.2676,0,0,0,0,0,0,0,0,0,0,0,0,0,0.2629,0.2628,0.2631,0.2632,0.2632,0.2651,0.2651,0.2652,0.2652,0.2652,0.2652,0.2652,0.2674,0.2675,0.2676,0,0,0,0,0,0,0,0,0,0,0,0,0,0.2636,0.2628,0.2631,0.2635,0.2636,0.2651,0.2651,0.2652,0.2652,0.2652,0.2652,0.2652,0.2674,0.2675,0.2676,0.2688,0,0,0.268,0.268,0,0,0,0,0,0,0,0,0.2636,0.2636,0.2634,0.2635,0.2636,0.265,0.2659,0.2664,0.2652,0.2645,0.2652,0.2651,0.2667,0.2669,0.2672,0.2689,0.269,0.268,0.2681,0.2681,0.2681,0,0,0,0,0,0,0,0.2635,0.2636,0.2638,0.2635,0.2636,0.2648,0.2649,0.266,0.2657,0.2646,0.2646,0.265,0.2668,0.2671,0.2673,0.269,0.268,0.2681,0.2682,0.2682,0.2782,0.2784,0,0,0,0,0,0,0.2633,0.2635,0.2638,0.2639,0.2636,0.2648,0.2649,0.2645,0.2657,0.2658,0.265,0.265,0.2669,0.2671,0.2673,0.2732,0.2681,0.2682,0.2683,0.278,0.2783,0.2785,0,0,0,0,0,0,0.2633,0.2633,0.2637,0.2639,0.264,0.2648,0.2644,0.2645,0.2651,0.266,0.2661,0.2655,0.2669,0.2672,0.2702,0.2731,0.2683,0.2684,0.2778,0.2781,0.2784,0.2821,0,0,0,0,0,0,0.2632,0.2632,0.2629,0.2638,0.264,0.2658,0.2645,0.2646,0.2654,0.2654,0.2665,0.2666,0.2669,0.27,0.2703,0.2732,0.2685,0.2775,0.2779,0.2783,0.2817,0.2825,0.2831,0,0,0,0,0,0.2632,0.2631,0.2629,0.263,0.2635,0.2659,0.2662,0.2666,0.2655,0.2668,0.2678,0.2666,0.2726,0.2702,0.2705,0.2735,0.2774,0.2778,0.2783,0.2814,0.2823,0.2831,0,0,0,0,0,0,0.2627,0.2632,0.2629,0.2629,0.2648,0.266,0.2671,0.2669,0.2685,0.2686,0.2684,0.2688,0.2734,0.273,0.2703,0.2779,0.2751,0.2756,0.2774,0.2782,0.2789,0.2816,0.2686,0,0,0,0,0,0.2625,0.2625,0.2638,0.264,0.2651,0.266,0.2668,0.2675,0.269,0.2696,0.2706,0.2725,0.2755,0.2762,0.2792,0.2818,0.285,0.2844,0.2851,0.2856,0.2883,0.2961,0.2977,0.2799,0.2799,0.2799,0,0,0.2619,0.2626,0.2623,0.2639,0.2653,0.2679,0.2665,0.2687,0.2711,0.2697,0.2735,0.2754,0.2772,0.2817,0.2835,0.2812,0.2922,0.2862,0.2867,0.289,0.2967,0.2985,0.3,0.2803,0.2802,0.2801,0,0,0.2628,0.2622,0.2634,0.2654,0.2682,0.2695,0.2702,0.2726,0.274,0.2772,0.2784,0.2825,0.2845,0.2882,0.2896,0.2959,0.2967,0.296,0.3003,0.3078,0.3094,0.3108,0.316,0.3179,0.2951,0.2951,0.2951,0,0.2624,0.2635,0.2644,0.2672,0.2688,0.2703,0.273,0.2753,0.2785,0.2808,0.2792,0.2875,0.2885,0.2957,0.2982,0.2977,0.3012,0.2962,0.3088,0.3102,0.3116,0.3166,0.3186,0.2953,0.2953,0.2953,0.2953,0,0.265,0.266,0.2674,0.2709,0.2734,0.2759,0.2795,0.2827,0.2837,0.2862,0.2935,0.2962,0.301,0.3021,0.3017,0.3122,0.3113,0.3095,0.3063,0.3136,0.3184,0.3204,0.2957,0.2956,0.2955,0.2955,0,0,0.2632,0.268,0.2683,0.2702,0.2752,0.2774,0.2829,0.2883,0.2922,0.2964,0.3025,0.3086,0.3106,0.3127,0.3139,0.3201,0.3317,0.3188,0.3191,0.3235,0.3477,0.3315,0.3321,0.3318,0.3322,0.3325,0.3467,0,0.2647,0.269,0.2717,0.276,0.2783,0.2822,0.2872,0.2928,0.297,0.3039,0.3093,0.3159,0.3143,0.3173,0.3237,0.3308,0.3374,0.328,0.3405,0.341,0.3252,0.334,0.3109,0.3203,0.3487,0.349,0.3493,0,0.2657,0.2686,0.2725,0.2779,0.2795,0.2827,0.2905,0.2956,0.306,0.31,0.3179,0.3224,0.3338,0.3305,0.3469,0.3409,0.3457,0.35,0.3506,0.3361,0.3285,0.318,0.3229,0.3141,0.3523,0.3521,0.3519,0,0.2626,0.2684,0.2709,0.2727,0.2801,0.2829,0.2874,0.2969,0.3028,0.315,0.3214,0.333,0.3405,0.3498,0.3568,0.3539,0.3737,0.3699,0.3604,0.3592,0.3425,0.339,0.3398,0.3831,0.383,0.383,0.3829,0,0.2613,0.2632,0.2692,0.2705,0.2757,0.2809,0.288,0.2947,0.3058,0.3147,0.3243,0.3337,0.3463,0.357,0.3622,0.3667,0.3779,0.3643,0.363,0.3426,0.3392,0.3327,0.3308,0.3835,0.3834,0.3833,0.3832,0,0.2564,0.2601,0.2639,0.2711,0.2739,0.2773,0.288,0.2938,0.3045,0.317,0.3219,0.3383,0.3515,0.3609,0.3765,0.3718,0.366,0.377,0.3503,0.3454,0.3218,0.3209,0.3122,0.3045,0.3689,0.3686,0.3683,0,0.2536,0.2549,0.2634,0.2668,0.2697,0.2761,0.2817,0.2923,0.2997,0.319,0.3257,0.3416,0.351,0.3648,0.36,0.3639,0.3588,0.3434,0.3324,0.3193,0.3179,0.3077,0.3013,0.3133,0.3126,0.312,0.3116,0,0.25,0.2532,0.2578,0.2652,0.2704,0.2764,0.2848,0.2901,0.304,0.3135,0.328,0.3366,0.3449,0.3362,0.3357,0.3347,0.3212,0.3315,0.3272,0.2822,0.2626,0.2546,0.3052,0.3066,0.3071,0.3075,0.3077,0.3079,0.2485,0.2513,0.2589,0.2642,0.2704,0.2759,0.2774,0.2868,0.2958,0.3045,0.3186,0.3211,0.3149,0.3088,0.3054,0.2789,0.2878,0.2666,0.2697,0.2631,0.2445,0.2815,0.274,0.2743,0.2746,0.2748,0.275,0,0.2482,0.2523,0.2578,0.2645,0.267,0.272,0.279,0.2776,0.2821,0.2896,0.2952,0.2831,0.2689,0.2621,0.2346,0.2189,0.2109,0.2138,0.1979,0.1976,0.2386,0.2245,0.1944,0.1944,0.1944,0.1944,0.1944,0.1944,0.2495,0.2541,0.256,0.2592,0.262,0.2612,0.2617,0.2603,0.2622,0.2536,0.2433,0.2405,0.2342,0.2121,0.1872,0.1808,0.1702,0.1545,0.1671,0.1981,0.2033,0.2083,0.1947,0.1587,0.1587,0.1112,0.1108,0.1106]},{"header":{"parameterUnit":"m.s-1","parameterCategory":2,"la1":30.2991,"la2":30.254,"lo1":-89.0895,"lo2":-89.0444,"dy":0.0017,"dx":0.0017,"nx":28,"ny":28,"refTime":"2023-08-27T21:00:00:Z","depth":"0","parameterNumber":3,"parameterNumberName":"V-component_of_CURRENTS"},"data":[0,0,0,0,0,0,0,0,0,0,0,0,0,0,0,0,0,0,0,0,0,0,0,0,0,0,0,0,0,0,0,0,0,0,0,0,0,0,0,0,0,0,0,0,0,0,0,0,0,0,0,0,0,0,0,0,0,0,0.0269,0.0269,0,0.0255,0.0254,0.0254,0.024,0.024,0.024,0.024,0.0219,0.0219,0.0218,0,0,0,0,0,0,0,0,0,0,0,0,0,0.0261,0.0261,0.0269,0.0269,0.0269,0.0255,0.0254,0.0254,0.024,0.024,0.024,0.024,0.0219,0.0219,0.0218,0,0,0,0,0,0,0,0,0,0,0,0,0,0.0257,0.0261,0.0269,0.0261,0.026,0.0255,0.0254,0.0254,0.024,0.024,0.024,0.0239,0.022,0.0219,0.0218,0.0218,0,0,0.0216,0.0216,0,0,0,0,0,0,0,0,0.0257,0.0257,0.0262,0.0261,0.026,0.0249,0.0244,0.0242,0.024,0.0247,0.024,0.0239,0.0229,0.0228,0.0225,0.0217,0.0216,0.0216,0.0216,0.0216,0.0216,0,0,0,0,0,0,0,0.0257,0.0257,0.0263,0.0262,0.0261,0.0249,0.0249,0.0243,0.0239,0.0246,0.0245,0.0245,0.0229,0.0225,0.0224,0.0216,0.0216,0.0216,0.0215,0.0215,0.0214,0.0215,0,0,0,0,0,0,0.0262,0.0258,0.0263,0.0262,0.0259,0.025,0.0249,0.0253,0.0239,0.0237,0.0245,0.0244,0.0227,0.0225,0.0223,0.0248,0.0216,0.0215,0.0215,0.0214,0.0214,0.0215,0,0,0,0,0,0,0.0262,0.0263,0.0264,0.026,0.0259,0.025,0.0254,0.0252,0.0252,0.0238,0.0236,0.0246,0.0226,0.0224,0.0229,0.0246,0.0215,0.0214,0.0214,0.0214,0.0215,0.028,0,0,0,0,0,0,0.0262,0.0263,0.0266,0.026,0.026,0.0269,0.0254,0.0252,0.0252,0.0251,0.0239,0.0236,0.0226,0.023,0.0229,0.0244,0.0214,0.0213,0.0214,0.0214,0.0278,0.0283,0.0287,0,0,0,0,0,0.0262,0.0271,0.0267,0.0267,0.0265,0.027,0.0269,0.0261,0.0252,0.0258,0.0251,0.0237,0.0233,0.0231,0.0228,0.0244,0.0213,0.0214,0.0214,0.0275,0.0282,0.0287,0,0,0,0,0,0,0.0267,0.027,0.0265,0.0274,0.0275,0.0268,0.0272,0.0264,0.0263,0.0263,0.0246,0.0244,0.0254,0.0237,0.0234,0.0244,0.0218,0.0219,0.0265,0.0271,0.0276,0.0302,0.0213,0,0,0,0,0,0.027,0.028,0.0278,0.0285,0.0288,0.028,0.028,0.0276,0.0274,0.0272,0.0266,0.0256,0.0255,0.0254,0.0249,0.0256,0.0261,0.0261,0.0266,0.0271,0.0289,0.0305,0.0314,0.0217,0.0217,0.0217,0,0,0.0273,0.0277,0.0281,0.0287,0.0287,0.0303,0.028,0.0287,0.0301,0.0271,0.0289,0.0276,0.026,0.0272,0.0274,0.0261,0.0302,0.0272,0.0276,0.0292,0.0307,0.0317,0.0325,0.0218,0.0218,0.0218,0,0,0.0294,0.029,0.0309,0.0315,0.0321,0.0319,0.0324,0.0323,0.0324,0.0335,0.032,0.0323,0.0312,0.0314,0.031,0.0338,0.0329,0.0325,0.0373,0.0388,0.0397,0.0405,0.0435,0.0445,0.0326,0.0327,0.0327,0,0.0298,0.0322,0.0314,0.0336,0.0348,0.0331,0.0358,0.0357,0.0359,0.0371,0.0348,0.0355,0.0337,0.0365,0.037,0.0352,0.0362,0.0354,0.0398,0.0405,0.0412,0.0441,0.0451,0.033,0.0329,0.0329,0.0329,0,0.0336,0.0355,0.0367,0.0393,0.0403,0.0422,0.0424,0.0436,0.043,0.0431,0.0453,0.0432,0.044,0.0426,0.0406,0.0444,0.0438,0.0405,0.0389,0.0426,0.0454,0.0463,0.0334,0.0333,0.0332,0.0332,0,0,0.0352,0.0388,0.0394,0.042,0.0436,0.0454,0.0481,0.0507,0.0538,0.0526,0.0571,0.0551,0.0542,0.0537,0.0513,0.0518,0.0568,0.0485,0.0484,0.0527,0.0621,0.0571,0.0576,0.0543,0.0544,0.0546,0.0626,0,0.0388,0.0444,0.045,0.0506,0.0537,0.0537,0.0569,0.0589,0.0596,0.0634,0.0617,0.0644,0.0583,0.0596,0.0592,0.058,0.0594,0.0551,0.0568,0.0569,0.0529,0.0585,0.0566,0.0631,0.0635,0.0636,0.0637,0,0.0429,0.0464,0.0522,0.0577,0.0592,0.062,0.0677,0.0704,0.0741,0.0749,0.0766,0.0757,0.078,0.0713,0.0722,0.0698,0.0671,0.0649,0.0651,0.0591,0.0536,0.059,0.0648,0.057,0.0652,0.065,0.0649,0,0.0458,0.0518,0.0569,0.0586,0.064,0.0671,0.0703,0.0742,0.0787,0.0834,0.0881,0.0881,0.0918,0.0872,0.082,0.0781,0.0828,0.0767,0.0702,0.0699,0.068,0.0672,0.0674,0.078,0.078,0.0779,0.0779,0,0.0498,0.0541,0.0589,0.0619,0.0694,0.0714,0.0794,0.0822,0.0886,0.0971,0.095,0.103,0.096,0.0971,0.0885,0.0837,0.0882,0.0737,0.0721,0.0701,0.0693,0.0618,0.0571,0.0782,0.0782,0.0781,0.0781,0,0.0525,0.0552,0.0619,0.0683,0.0709,0.0765,0.0857,0.0919,0.097,0.1088,0.1118,0.1174,0.1197,0.1113,0.1071,0.0947,0.0834,0.0849,0.0836,0.0815,0.0637,0.0595,0.0584,0.056,0.0793,0.0792,0.0791,0,0.0543,0.0578,0.0664,0.0713,0.0746,0.0828,0.0892,0.0955,0.1034,0.1189,0.1264,0.1332,0.1403,0.1313,0.1116,0.0973,0.0876,0.0831,0.0733,0.0649,0.0591,0.0551,0.0529,0.0749,0.0748,0.0747,0.0747,0,0.0581,0.0609,0.0665,0.0764,0.0838,0.0932,0.1032,0.1108,0.1215,0.1341,0.1518,0.1593,0.1515,0.1377,0.1145,0.102,0.0762,0.0808,0.0735,0.0574,0.0522,0.0484,0.0684,0.074,0.0741,0.0741,0.0742,0.0742,0.0609,0.0657,0.0731,0.0825,0.0914,0.1034,0.1125,0.1256,0.1421,0.1624,0.169,0.1828,0.1581,0.1275,0.1096,0.0723,0.074,0.0593,0.0559,0.0536,0.0472,0.0656,0.0668,0.0668,0.0669,0.0669,0.0669,0,0.0649,0.0705,0.0792,0.0909,0.101,0.1053,0.122,0.1335,0.155,0.1742,0.1906,0.1846,0.1562,0.1236,0.0723,0.0501,0.043,0.0397,0.035,0.0347,0.0532,0.0484,0.044,0.0441,0.0441,0.0441,0.0441,0.0441,0.0675,0.0757,0.0802,0.0968,0.1054,0.1202,0.1303,0.1497,0.1661,0.189,0.1965,0.199,0.1696,0.0895,0.0401,0.0312,0.0204,0.0154,0.0127,0.0246,0.0262,0.0277,0.0222,0.0124,0.0123,-0.0043,-0.0045,-0.0046]}],[{"header":{"parameterUnit":"m.s-1","parameterCategory":2,"la1":30.2991,"la2":30.254,"lo1":-89.0895,"lo2":-89.0444,"dy":0.0017,"dx":0.0017,"nx":28,"ny":28,"refTime":"2023-08-27T21:00:00:Z","depth":"2","parameterNumber":2,"parameterNumberName":"U-component_of_CURRENTS"},"data":[0,0,0,0,0,0,0,0,0,0,0,0,0,0,0,0,0,0,0,0,0,0,0,0,0,0,0,0,0,0,0,0,0,0,0,0,0,0,0,0,0,0,0,0,0,0,0,0,0,0,0,0,0,0,0,0,0,0,0.2102,0.2102,0,0.2095,0.2095,0.2095,0.2094,0.2095,0.2095,0.2095,0.2122,0.2123,0.2123,0,0,0,0,0,0,0,0,0,0,0,0,0,0.2123,0.2123,0.2102,0.2102,0.2102,0.2095,0.2095,0.2095,0.2094,0.2095,0.2095,0.2096,0.2122,0.2123,0.2123,0,0,0,0,0,0,0,0,0,0,0,0,0,0.2113,0.2122,0.2102,0.2103,0.2103,0.2096,0.2095,0.2095,0.2094,0.2095,0.2095,0.2096,0.2122,0.2122,0.2123,0.2118,0,0,0.2125,0.2125,0,0,0,0,0,0,0,0,0.2113,0.2111,0.2103,0.2103,0.2103,0.2099,0.2113,0.2105,0.2094,0.2095,0.2095,0.2096,0.2119,0.212,0.2113,0.2119,0.212,0.2125,0.2125,0.2126,0.2126,0,0,0,0,0,0,0,0.2114,0.2112,0.2097,0.2103,0.2103,0.2107,0.2106,0.2111,0.2103,0.2095,0.2096,0.2099,0.2119,0.2112,0.2114,0.212,0.2125,0.2126,0.2126,0.2126,0.2189,0.219,0,0,0,0,0,0,0.2119,0.2112,0.2097,0.2097,0.2112,0.2107,0.2105,0.2097,0.2102,0.2104,0.2098,0.2099,0.2111,0.2113,0.2115,0.2175,0.2126,0.2126,0.2127,0.2188,0.2189,0.2191,0,0,0,0,0,0,0.2119,0.2117,0.2097,0.2107,0.2105,0.2106,0.2097,0.2097,0.2105,0.2105,0.2107,0.2109,0.2112,0.2114,0.2142,0.2174,0.2127,0.2127,0.2186,0.2188,0.219,0.2253,0,0,0,0,0,0,0.2119,0.2117,0.2117,0.2107,0.2105,0.2111,0.2097,0.2097,0.2107,0.2107,0.2114,0.2116,0.2112,0.2141,0.2143,0.2174,0.2128,0.2185,0.2187,0.2189,0.2249,0.2257,0.2263,0,0,0,0,0,0.212,0.212,0.2117,0.2116,0.2104,0.2112,0.2111,0.2112,0.2107,0.2118,0.2126,0.2117,0.2158,0.2143,0.2144,0.2176,0.2184,0.2187,0.2189,0.2246,0.2255,0.2263,0,0,0,0,0,0,0.2128,0.2119,0.2116,0.2113,0.2121,0.2113,0.2121,0.212,0.2131,0.2135,0.2131,0.2134,0.2172,0.2163,0.2147,0.2201,0.217,0.2173,0.2212,0.2221,0.2228,0.2236,0.2128,0,0,0,0,0,0.213,0.2128,0.2126,0.2126,0.213,0.2127,0.2131,0.2133,0.214,0.2145,0.215,0.216,0.2182,0.2193,0.2205,0.2231,0.2243,0.2253,0.226,0.2266,0.2274,0.2322,0.2334,0.22,0.22,0.22,0,0,0.2131,0.2129,0.2127,0.2129,0.213,0.2139,0.213,0.2143,0.2158,0.2147,0.2171,0.2186,0.2194,0.223,0.2246,0.2229,0.2313,0.2269,0.2274,0.228,0.2326,0.2339,0.2351,0.2202,0.2202,0.2202,0,0,0.2136,0.2133,0.2135,0.2144,0.2157,0.2158,0.2167,0.2171,0.2183,0.2204,0.2211,0.2244,0.2258,0.2281,0.2291,0.2341,0.2349,0.235,0.2393,0.244,0.2451,0.2462,0.2506,0.252,0.2353,0.2353,0.2353,0,0.2141,0.2137,0.214,0.2149,0.2159,0.2169,0.218,0.2194,0.221,0.2231,0.2221,0.2278,0.2281,0.2342,0.2363,0.2357,0.239,0.236,0.245,0.246,0.247,0.2513,0.2527,0.2356,0.2356,0.2355,0.2355,0,0.2144,0.215,0.2155,0.2166,0.2181,0.2196,0.2215,0.2241,0.2252,0.2267,0.2328,0.2344,0.238,0.2392,0.2392,0.2472,0.2477,0.2455,0.243,0.2487,0.2529,0.2543,0.2361,0.236,0.2359,0.2358,0,0,0.2133,0.2152,0.2155,0.2163,0.2193,0.2201,0.2243,0.2281,0.2314,0.2345,0.2394,0.2439,0.246,0.2474,0.2494,0.2537,0.2629,0.2534,0.2535,0.2581,0.2751,0.261,0.2612,0.2635,0.2638,0.264,0.2757,0,0.2136,0.2147,0.2164,0.2186,0.2191,0.2228,0.2263,0.2305,0.2343,0.2397,0.2443,0.2496,0.2489,0.2525,0.2569,0.2622,0.2668,0.26,0.2686,0.2688,0.2558,0.2623,0.2391,0.2463,0.277,0.2772,0.2774,0,0.2129,0.2139,0.2153,0.2189,0.2198,0.2222,0.2287,0.2326,0.2412,0.2446,0.2519,0.2556,0.265,0.2619,0.2743,0.271,0.2737,0.2764,0.2769,0.2623,0.2572,0.2453,0.2476,0.2797,0.2795,0.2793,0.2792,0,0.2102,0.2131,0.2141,0.2152,0.2196,0.2226,0.2266,0.2343,0.2391,0.2499,0.255,0.2647,0.2712,0.2774,0.282,0.2806,0.2936,0.2913,0.2814,0.2805,0.2613,0.2581,0.2988,0.2988,0.2987,0.2987,0.2987,0,0.2088,0.2098,0.213,0.2135,0.2169,0.2211,0.2273,0.2331,0.2426,0.2489,0.2583,0.2643,0.2758,0.2833,0.2862,0.2878,0.2969,0.2837,0.2827,0.2626,0.2596,0.2879,0.2865,0.2991,0.299,0.299,0.2989,0,0.2051,0.2073,0.2086,0.2132,0.2154,0.2181,0.2275,0.2317,0.2421,0.2513,0.2558,0.2682,0.2777,0.2859,0.2961,0.2918,0.2949,0.2922,0.2674,0.263,0.2786,0.2774,0.285,0.2846,0.2843,0.284,0.2838,0,0.203,0.2029,0.2073,0.2094,0.212,0.2173,0.2211,0.2307,0.2354,0.2513,0.2545,0.268,0.2723,0.2817,0.2784,0.2809,0.2893,0.2585,0.2489,0.2789,0.2774,0.2767,0.2759,0.2284,0.2277,0.2271,0.2267,0,0.1993,0.2009,0.2023,0.2061,0.2098,0.213,0.2193,0.2218,0.2333,0.2407,0.248,0.2532,0.2609,0.2507,0.2524,0.2499,0.256,0.2469,0.2877,0.2325,0.2256,0.2239,0.2251,0.2218,0.2223,0.2227,0.2229,0.2231,0.1967,0.1968,0.1992,0.2019,0.2052,0.2058,0.2057,0.2109,0.2149,0.2208,0.2315,0.2316,0.2328,0.2225,0.2146,0.2088,0.227,0.2167,0.2184,0.2208,0.2092,0.2017,0.1915,0.1918,0.1921,0.1923,0.1925,0,0.193,0.1932,0.1954,0.1964,0.1947,0.2007,0.2014,0.1972,0.1952,0.2027,0.2055,0.1877,0.1799,0.1834,0.1656,0.162,0.1619,0.1558,0.1547,0.1596,0.1639,0.1495,0.116,0.1158,0.1156,0.1154,0,0,0.1916,0.1906,0.1903,0.1845,0.1857,0.1805,0.1783,0.173,0.1725,0.1657,0.1641,0.1756,0.1794,0.1478,0.1403,0.1258,0.1427,0.1202,0.1817,0.1856,0.1897,0.1988,0.182,0,0,0,0,0]},{"header":{"parameterUnit":"m.s-1","parameterCategory":2,"la1":30.2991,"la2":30.254,"lo1":-89.0895,"lo2":-89.0444,"dy":0.0017,"dx":0.0017,"nx":28,"ny":28,"refTime":"2023-08-27T21:00:00:Z","depth":"2","parameterNumber":3,"parameterNumberName":"V-component_of_CURRENTS"},"data":[0,0,0,0,0,0,0,0,0,0,0,0,0,0,0,0,0,0,0,0,0,0,0,0,0,0,0,0,0,0,0,0,0,0,0,0,0,0,0,0,0,0,0,0,0,0,0,0,0,0,0,0,0,0,0,0,0,0,0.012,0.0119,0,0.0104,0.0104,0.0103,0.009,0.009,0.0089,0.0089,0.0063,0.0062,0.0061,0,0,0,0,0,0,0,0,0,0,0,0,0,0.0119,0.0119,0.012,0.0119,0.0119,0.0104,0.0104,0.0103,0.009,0.009,0.0089,0.0089,0.0063,0.0062,0.0061,0,0,0,0,0,0,0,0,0,0,0,0,0,0.0112,0.0119,0.012,0.0111,0.011,0.0104,0.0104,0.0103,0.009,0.009,0.0089,0.0089,0.0063,0.0062,0.0061,0.0059,0,0,0.0059,0.0058,0,0,0,0,0,0,0,0,0.0113,0.0112,0.0112,0.0111,0.011,0.0099,0.0093,0.0088,0.009,0.0097,0.0089,0.0089,0.0074,0.0072,0.0069,0.0058,0.0057,0.0059,0.0058,0.0058,0.0057,0,0,0,0,0,0,0,0.0113,0.0113,0.0113,0.0112,0.0111,0.0101,0.01,0.0092,0.0086,0.0096,0.0095,0.0094,0.0073,0.007,0.0069,0.0057,0.0059,0.0058,0.0057,0.0057,0.0051,0.0051,0,0,0,0,0,0,0.0117,0.0113,0.0113,0.0112,0.0112,0.0101,0.01,0.0102,0.0087,0.0084,0.0095,0.0094,0.0072,0.007,0.0068,0.0081,0.0058,0.0057,0.0056,0.005,0.0051,0.0051,0,0,0,0,0,0,0.0117,0.0117,0.0114,0.0113,0.0112,0.0102,0.0104,0.0102,0.0101,0.0085,0.0083,0.0096,0.0072,0.0069,0.0069,0.008,0.0056,0.0056,0.005,0.0051,0.0051,0.0098,0,0,0,0,0,0,0.0117,0.0118,0.012,0.0113,0.0112,0.0117,0.0104,0.0102,0.0101,0.01,0.0086,0.0083,0.0071,0.007,0.0068,0.0078,0.0055,0.0049,0.005,0.0051,0.0096,0.01,0.0104,0,0,0,0,0,0.0117,0.0124,0.0121,0.0121,0.0116,0.0117,0.0116,0.0107,0.0101,0.0105,0.0097,0.0083,0.0073,0.007,0.0067,0.0077,0.0049,0.005,0.0051,0.0094,0.0099,0.0104,0,0,0,0,0,0,0.0123,0.0123,0.0119,0.0125,0.0123,0.0115,0.0118,0.0111,0.0107,0.0107,0.009,0.0087,0.009,0.0076,0.0074,0.0077,0.0058,0.0058,0.0092,0.0096,0.01,0.0115,0.0054,0,0,0,0,0,0.0126,0.0134,0.0129,0.0134,0.0135,0.0127,0.0125,0.0121,0.0117,0.0115,0.0105,0.0096,0.0091,0.0088,0.008,0.0083,0.0075,0.0087,0.0091,0.0094,0.0104,0.01,0.0105,0.0054,0.0054,0.0054,0,0,0.0129,0.0131,0.0134,0.0136,0.0134,0.0145,0.0126,0.0129,0.014,0.0112,0.0123,0.0109,0.0094,0.0099,0.0099,0.009,0.0104,0.0095,0.0098,0.0106,0.0101,0.0106,0.0111,0.0055,0.0055,0.0054,0,0,0.0144,0.0141,0.0154,0.0158,0.016,0.0158,0.0161,0.0157,0.0156,0.0162,0.0147,0.0142,0.0132,0.0127,0.0122,0.0142,0.0124,0.0135,0.0169,0.0165,0.017,0.0173,0.0172,0.0175,0.0138,0.0139,0.0139,0,0.0147,0.0165,0.0158,0.0173,0.0182,0.0168,0.0187,0.0185,0.0182,0.0189,0.0172,0.0167,0.0148,0.0161,0.0165,0.0152,0.0147,0.0154,0.0171,0.0175,0.0178,0.0175,0.0178,0.0141,0.0141,0.014,0.014,0,0.0174,0.0189,0.0198,0.0217,0.0224,0.0238,0.0237,0.0244,0.0239,0.0237,0.0246,0.0222,0.0222,0.0209,0.0192,0.0206,0.0196,0.0177,0.0162,0.0186,0.0181,0.0183,0.0144,0.0143,0.0143,0.0142,0,0,0.0186,0.0212,0.0218,0.0239,0.0251,0.0264,0.0282,0.03,0.0322,0.0306,0.0335,0.031,0.0296,0.029,0.0266,0.0256,0.0264,0.0228,0.0227,0.0232,0.0261,0.0227,0.0226,0.025,0.025,0.0251,0.025,0,0.0213,0.0255,0.026,0.0305,0.0328,0.0328,0.0353,0.0365,0.0368,0.0389,0.0364,0.0378,0.0328,0.0334,0.0315,0.0282,0.0272,0.0267,0.0233,0.0232,0.0203,0.0228,0.0242,0.024,0.0252,0.0253,0.0253,0,0.0243,0.027,0.0316,0.0362,0.0374,0.0397,0.0441,0.0462,0.048,0.0483,0.0484,0.0467,0.046,0.041,0.0367,0.0368,0.0321,0.0285,0.0284,0.0239,0.0202,0.0217,0.0244,0.0256,0.0256,0.0256,0.0255,0,0.0268,0.0314,0.0356,0.037,0.0413,0.0439,0.0466,0.0492,0.0529,0.055,0.0582,0.0554,0.0565,0.0498,0.0417,0.04,0.0365,0.0332,0.0258,0.0255,0.0254,0.0249,0.0302,0.0302,0.0302,0.0302,0.0302,0,0.0301,0.0337,0.0373,0.0398,0.0461,0.0476,0.0546,0.0564,0.061,0.0676,0.0639,0.0682,0.0588,0.0555,0.0458,0.037,0.0398,0.0274,0.0255,0.0269,0.0266,0.0266,0.0262,0.0302,0.0302,0.0302,0.0302,0,0.0324,0.0345,0.04,0.0451,0.0475,0.0522,0.0607,0.0659,0.0693,0.0781,0.0799,0.0793,0.0752,0.0644,0.0546,0.044,0.0345,0.0303,0.0324,0.0307,0.0227,0.0225,0.0229,0.0227,0.0227,0.0226,0.0225,0,0.034,0.0368,0.0438,0.0484,0.0512,0.0586,0.0645,0.0695,0.0763,0.0855,0.0907,0.0896,0.0898,0.0732,0.0551,0.0385,0.0355,0.0274,0.0231,0.0239,0.0221,0.022,0.022,0.0253,0.0253,0.0252,0.0252,0,0.0373,0.0395,0.044,0.0529,0.0598,0.0685,0.0775,0.0843,0.0925,0.1003,0.109,0.1096,0.0948,0.0784,0.0545,0.0423,0.0296,0.026,0.0283,0.0259,0.0259,0.0242,0.0241,0.0249,0.025,0.025,0.025,0.025,0.0397,0.0436,0.0498,0.0585,0.0667,0.078,0.0865,0.0968,0.1088,0.1207,0.1202,0.1205,0.1011,0.0704,0.0498,0.0278,0.029,0.0197,0.02,0.0203,0.0195,0.0192,0.0169,0.0169,0.0169,0.0169,0.0169,0,0.0432,0.0478,0.0556,0.0662,0.0755,0.0798,0.0951,0.1039,0.1187,0.1268,0.1325,0.1131,0.0949,0.0724,0.0404,0.0205,0.0193,0.0133,0.0167,0.0172,0.0176,0.0167,0.0133,0.0133,0.0132,0.0131,0,0,0.0454,0.0525,0.0564,0.0713,0.0795,0.0931,0.1025,0.1154,0.1242,0.1315,0.1311,0.1271,0.1011,0.0763,0.0504,0.0325,0.0289,0.028,0.0331,0.0408,0.0414,0.0236,0.0231,0,0,0,0,0]}],[{"header":{"parameterUnit":"m.s-1","parameterCategory":2,"la1":30.2991,"la2":30.254,"lo1":-89.0895,"lo2":-89.0444,"dy":0.0017,"dx":0.0017,"nx":28,"ny":28,"refTime":"2023-08-27T21:00:00:Z","depth":"4","parameterNumber":2,"parameterNumberName":"U-component_of_CURRENTS"},"data":[0,0,0,0,0,0,0,0,0,0,0,0,0,0,0,0,0,0,0,0,0,0,0,0,0,0,0,0,0,0,0,0,0,0,0,0,0,0,0,0,0,0,0,0,0,0,0,0,0,0,0,0,0,0,0,0,0,0,0.1254,0.1254,0,0.1264,0.1264,0.1264,0.129,0.1291,0.1291,0.1292,0.1321,0.1321,0.1322,0,0,0,0,0,0,0,0,0,0,0,0,0,0.1256,0.1255,0.1254,0.1254,0.1254,0.1264,0.1264,0.1264,0.129,0.1291,0.1291,0.1292,0.1321,0.1321,0.1322,0,0,0,0,0,0,0,0,0,0,0,0,0,0.1258,0.1255,0.1254,0.1269,0.1271,0.1264,0.1264,0.1264,0.129,0.1291,0.1292,0.1293,0.1321,0.1321,0.1322,0.1303,0,0,0.1322,0.1322,0,0,0,0,0,0,0,0,0.1258,0.1258,0.1267,0.1268,0.127,0.1278,0.1275,0.1278,0.1289,0.1281,0.1292,0.1293,0.1309,0.131,0.1308,0.1304,0.1306,0.1322,0.1323,0.1323,0.1323,0,0,0,0,0,0,0,0.1257,0.1257,0.1256,0.1267,0.1269,0.1275,0.1277,0.1276,0.1288,0.1282,0.1284,0.1287,0.131,0.1307,0.1308,0.1306,0.1322,0.1323,0.1323,0.1323,0.1373,0.1374,0,0,0,0,0,0,0.1258,0.1257,0.1256,0.1257,0.1268,0.1275,0.1276,0.1273,0.1288,0.1292,0.1286,0.1288,0.1306,0.1308,0.131,0.1364,0.1323,0.1323,0.1323,0.1371,0.1373,0.1374,0,0,0,0,0,0,0.1257,0.1257,0.1256,0.1259,0.1259,0.1274,0.127,0.1273,0.13,0.1291,0.1295,0.1314,0.1307,0.1309,0.1332,0.1362,0.1323,0.1323,0.137,0.1372,0.1373,0.1424,0,0,0,0,0,0,0.1257,0.1257,0.127,0.1258,0.1259,0.1268,0.1269,0.1272,0.1299,0.1302,0.1316,0.1318,0.1308,0.1332,0.1332,0.1362,0.1323,0.1368,0.1371,0.1373,0.1421,0.1427,0.1433,0,0,0,0,0,0.1257,0.1262,0.1271,0.1272,0.1272,0.1268,0.127,0.1282,0.1299,0.1311,0.1323,0.1319,0.1347,0.1332,0.1333,0.1364,0.1367,0.137,0.1373,0.1418,0.1426,0.1433,0,0,0,0,0,0,0.127,0.1265,0.1274,0.1279,0.1284,0.1274,0.129,0.1299,0.1317,0.1332,0.1327,0.1329,0.1362,0.1355,0.1339,0.1385,0.1359,0.1362,0.1393,0.1401,0.1407,0.1413,0.1324,0,0,0,0,0,0.1279,0.1286,0.128,0.129,0.1294,0.13,0.1308,0.1316,0.1323,0.1334,0.1344,0.1358,0.1367,0.1379,0.1382,0.1404,0.1408,0.1426,0.1432,0.1438,0.1444,0.1477,0.1486,0.1383,0.1383,0.1383,0,0,0.1288,0.1287,0.1293,0.1295,0.1302,0.1306,0.1308,0.1326,0.134,0.1333,0.1369,0.1378,0.1377,0.1402,0.1417,0.1405,0.147,0.1441,0.1445,0.1449,0.1481,0.1491,0.15,0.1385,0.1384,0.1384,0,0,0.1296,0.131,0.1315,0.132,0.1335,0.1333,0.1346,0.1355,0.1375,0.1399,0.1404,0.1431,0.1445,0.1451,0.1454,0.1495,0.1499,0.1507,0.1546,0.1578,0.1587,0.1594,0.1615,0.1624,0.1513,0.1513,0.1513,0,0.1314,0.1311,0.1318,0.1323,0.1333,0.1349,0.1357,0.1372,0.1393,0.1413,0.1421,0.1462,0.1465,0.1493,0.1515,0.1509,0.1529,0.1517,0.1586,0.1594,0.1601,0.162,0.1629,0.1515,0.1515,0.1515,0.1515,0,0.131,0.1324,0.133,0.134,0.1353,0.1364,0.138,0.141,0.144,0.1455,0.1505,0.1513,0.154,0.1551,0.1547,0.1604,0.1602,0.1588,0.1567,0.1614,0.1631,0.164,0.1519,0.1518,0.1518,0.1517,0,0,0.1306,0.1324,0.133,0.1337,0.1364,0.1366,0.1406,0.1434,0.1464,0.1505,0.1547,0.1578,0.1603,0.1609,0.1617,0.165,0.1719,0.1654,0.1654,0.1674,0.1797,0.1661,0.1657,0.1728,0.173,0.1732,0.179,0,0.1305,0.1313,0.1326,0.1344,0.1348,0.1382,0.1412,0.1449,0.1488,0.1536,0.1574,0.1616,0.1619,0.1648,0.1684,0.1709,0.1746,0.1705,0.1749,0.175,0.1622,0.1663,0.1737,0.1796,0.1798,0.18,0.1801,0,0.1291,0.1299,0.1315,0.1343,0.135,0.1371,0.1425,0.1455,0.1526,0.1565,0.1624,0.1656,0.1721,0.1715,0.1791,0.1772,0.1798,0.1812,0.1814,0.1674,0.1629,0.1739,0.1817,0.1816,0.1814,0.1813,0.1812,0,0.1264,0.1289,0.1302,0.1311,0.1347,0.1376,0.1409,0.1474,0.1508,0.1599,0.1644,0.171,0.176,0.1806,0.1842,0.1836,0.1913,0.1898,0.1796,0.1787,0.1871,0.1862,0.1956,0.1956,0.1956,0.1956,0.1956,0,0.1237,0.125,0.1296,0.1298,0.1327,0.1368,0.1413,0.1461,0.1538,0.158,0.1667,0.1707,0.1793,0.1841,0.1866,0.185,0.1933,0.1809,0.1794,0.1891,0.1883,0.1878,0.1868,0.1958,0.1957,0.1957,0.1957,0,0.1197,0.1227,0.1241,0.1289,0.1312,0.1337,0.1411,0.1434,0.1531,0.1595,0.1634,0.1731,0.1795,0.1851,0.1918,0.1862,0.1868,0.1844,0.1947,0.1936,0.1719,0.1712,0.1737,0.1733,0.1729,0.1726,0.1724,0,0.117,0.1176,0.123,0.1237,0.1262,0.1311,0.1337,0.1427,0.1451,0.1587,0.1601,0.1709,0.1764,0.1747,0.1812,0.1834,0.1816,0.1795,0.1755,0.1714,0.1699,0.1696,0.1694,0.1718,0.1717,0.1716,0.1715,0,0.1117,0.1151,0.1158,0.1183,0.1209,0.1224,0.1273,0.1287,0.1389,0.1499,0.1537,0.1574,0.1637,0.1671,0.1697,0.1709,0.1789,0.1756,0.1764,0.1726,0.1691,0.1678,0.168,0.1702,0.1704,0.1705,0.1706,0,0.1081,0.1074,0.1095,0.1104,0.113,0.1115,0.1156,0.1183,0.1228,0.1384,0.1392,0.1516,0.1619,0.1607,0.1629,0.1627,0.1608,0.154,0.1559,0.1573,0.1489,0.1418,0.1338,0,0,0,0,0,0.1035,0.1011,0.101,0.0996,0.1015,0.1036,0.1091,0.1135,0.1253,0.1244,0.1315,0.1372,0.1416,0.1467,0.1436,0.1551,0.1607,0.1503,0.1536,0.1632,0.1646,0.156,0,0,0,0,0,0,0.0997,0.0994,0.0979,0.0907,0.0885,0.0889,0.0926,0.1004,0.1001,0.1139,0.1173,0.1276,0.1342,0.1432,0.1411,0.1426,0.1411,0.158,0.1575,0.1623,0.1637,0.1649,0.1565,0,0,0,0,0]},{"header":{"parameterUnit":"m.s-1","parameterCategory":2,"la1":30.2991,"la2":30.254,"lo1":-89.0895,"lo2":-89.0444,"dy":0.0017,"dx":0.0017,"nx":28,"ny":28,"refTime":"2023-08-27T21:00:00:Z","depth":"4","parameterNumber":3,"parameterNumberName":"V-component_of_CURRENTS"},"data":[0,0,0,0,0,0,0,0,0,0,0,0,0,0,0,0,0,0,0,0,0,0,0,0,0,0,0,0,0,0,0,0,0,0,0,0,0,0,0,0,0,0,0,0,0,0,0,0,0,0,0,0,0,0,0,0,0,0,0.0096,0.0096,0,0.0088,0.0088,0.0087,0.0084,0.0084,0.0084,0.0084,0.0071,0.0071,0.0071,0,0,0,0,0,0,0,0,0,0,0,0,0,0.0093,0.0093,0.0096,0.0096,0.0096,0.0088,0.0088,0.0087,0.0084,0.0084,0.0084,0.0084,0.0071,0.0071,0.0071,0,0,0,0,0,0,0,0,0,0,0,0,0,0.009,0.0093,0.0096,0.0093,0.0092,0.0088,0.0087,0.0087,0.0084,0.0084,0.0084,0.0084,0.0071,0.0071,0.007,0.0067,0,0,0.0069,0.0069,0,0,0,0,0,0,0,0,0.009,0.009,0.0093,0.0093,0.0093,0.0087,0.0082,0.008,0.0084,0.0087,0.0084,0.0084,0.0076,0.0075,0.0074,0.0067,0.0066,0.0069,0.0069,0.0068,0.0068,0,0,0,0,0,0,0,0.0091,0.0091,0.0093,0.0093,0.0093,0.0086,0.0086,0.0081,0.0082,0.0087,0.0086,0.0085,0.0076,0.0074,0.0073,0.0066,0.0069,0.0068,0.0068,0.0068,0.0067,0.0068,0,0,0,0,0,0,0.0092,0.0091,0.0093,0.0092,0.0091,0.0086,0.0086,0.0089,0.0082,0.0081,0.0085,0.0085,0.0075,0.0074,0.0073,0.0087,0.0068,0.0068,0.0068,0.0067,0.0067,0.0068,0,0,0,0,0,0,0.0092,0.0093,0.0093,0.0091,0.0091,0.0087,0.0089,0.0088,0.009,0.0081,0.008,0.0088,0.0075,0.0074,0.0077,0.0086,0.0068,0.0067,0.0067,0.0067,0.0067,0.0103,0,0,0,0,0,0,0.0092,0.0093,0.0096,0.0091,0.0091,0.0096,0.0089,0.0088,0.0089,0.0089,0.0082,0.0081,0.0075,0.0077,0.0076,0.0085,0.0067,0.0066,0.0067,0.0067,0.0101,0.0104,0.0107,0,0,0,0,0,0.0092,0.0097,0.0096,0.0096,0.0095,0.0096,0.0096,0.0092,0.0089,0.0093,0.0091,0.0082,0.008,0.0077,0.0076,0.0084,0.0066,0.0067,0.0067,0.01,0.0104,0.0107,0,0,0,0,0,0,0.0096,0.0097,0.0096,0.0101,0.0101,0.0096,0.0099,0.0095,0.0095,0.0096,0.0087,0.0086,0.009,0.0082,0.0079,0.0085,0.0071,0.0071,0.0096,0.0099,0.0102,0.0108,0.0066,0,0,0,0,0,0.0098,0.0104,0.0102,0.0107,0.0108,0.0103,0.0103,0.0102,0.0101,0.0101,0.0097,0.0093,0.0091,0.0091,0.0087,0.0091,0.0073,0.0094,0.0097,0.01,0.0103,0.0083,0.0085,0.007,0.007,0.007,0,0,0.01,0.0102,0.0105,0.0108,0.0108,0.0117,0.0104,0.0108,0.0116,0.0099,0.0111,0.0102,0.0094,0.01,0.0101,0.0095,0.0094,0.0101,0.0103,0.0104,0.0084,0.0086,0.0087,0.007,0.007,0.007,0,0,0.011,0.011,0.012,0.0123,0.0127,0.0126,0.0129,0.0128,0.013,0.0137,0.0127,0.0126,0.0123,0.0121,0.0118,0.0133,0.0108,0.013,0.0152,0.0133,0.0134,0.0135,0.011,0.0109,0.0133,0.0133,0.0133,0,0.0113,0.0127,0.0123,0.0134,0.0142,0.0133,0.0149,0.0148,0.0149,0.0155,0.0146,0.0143,0.0134,0.0142,0.0147,0.014,0.0122,0.0141,0.0137,0.0137,0.0137,0.0112,0.011,0.0135,0.0135,0.0134,0.0134,0,0.0131,0.0144,0.0151,0.0166,0.0173,0.0184,0.0185,0.0193,0.0192,0.0191,0.0197,0.0182,0.0182,0.0176,0.0166,0.0167,0.0151,0.0142,0.0129,0.0141,0.0114,0.0111,0.0137,0.0137,0.0136,0.0136,0,0,0.0137,0.016,0.0164,0.0182,0.0193,0.0204,0.0219,0.0234,0.025,0.024,0.0257,0.0243,0.0231,0.0227,0.0212,0.0194,0.0176,0.017,0.0169,0.0148,0.0128,0.0121,0.0117,0.0165,0.0165,0.0164,0.0108,0,0.0156,0.0187,0.0194,0.023,0.0248,0.0252,0.0272,0.0283,0.0285,0.0297,0.0277,0.0285,0.0252,0.0256,0.0231,0.0191,0.017,0.0192,0.0118,0.0116,0.011,0.0114,0.0164,0.0105,0.0104,0.0104,0.0103,0,0.0175,0.0197,0.0232,0.0273,0.0282,0.0302,0.0338,0.0355,0.0364,0.0366,0.036,0.0342,0.032,0.0291,0.022,0.0234,0.0186,0.0148,0.0145,0.0125,0.0104,0.0091,0.0097,0.0098,0.0098,0.0099,0.0099,0,0.0188,0.0227,0.026,0.0272,0.031,0.0334,0.0358,0.0377,0.0405,0.0411,0.0428,0.0388,0.038,0.031,0.0226,0.0224,0.014,0.0129,0.0075,0.0074,0.0081,0.0081,0.0081,0.0081,0.0081,0.0081,0.0081,0,0.0208,0.0237,0.0273,0.0292,0.0345,0.0361,0.0417,0.0432,0.0462,0.0501,0.0467,0.0477,0.0384,0.0326,0.024,0.0145,0.0148,0.0079,0.0061,0.0097,0.0099,0.0078,0.0079,0.0079,0.0079,0.008,0.008,0,0.0218,0.0238,0.0283,0.0331,0.0353,0.0393,0.0467,0.0505,0.0525,0.0573,0.0581,0.0543,0.0467,0.0364,0.0248,0.0174,0.0078,0.0044,0.0087,0.0072,0.002,0.0023,-0.0018,-0.0019,-0.0019,-0.002,-0.002,0,0.0226,0.0248,0.0313,0.0352,0.0379,0.0443,0.0493,0.0535,0.0579,0.0612,0.0636,0.0584,0.0543,0.0371,0.0254,0.009,0.0068,0.0012,0.0018,0.0024,0.001,0.0014,0.0018,-0.0021,-0.0021,-0.0021,-0.0021,0,0.0243,0.0266,0.0304,0.0381,0.0441,0.0516,0.0588,0.0623,0.0673,0.0689,0.0685,0.0605,0.052,0.0378,0.0252,0.0134,0.0043,0.0006,0.0006,0.0011,0.002,0.0008,0.0012,-0.0023,-0.0023,-0.0023,-0.0023,0,0.0259,0.0289,0.0341,0.0413,0.0488,0.0568,0.0607,0.0661,0.0702,0.0731,0.0721,0.0631,0.0575,0.0401,0.0281,0.0166,0.0137,0.0092,0.0088,0.0088,0.0133,0.0161,0.0147,0,0,0,0,0,0.0274,0.0312,0.0375,0.0453,0.0528,0.0577,0.0663,0.0696,0.0736,0.074,0.0736,0.0656,0.0492,0.0417,0.0302,0.0264,0.0111,0.0123,0.0055,-0.0034,-0.0032,0.0002,0,0,0,0,0,0,0.0287,0.034,0.0372,0.0473,0.0531,0.0621,0.0678,0.0709,0.0713,0.0728,0.0642,0.0612,0.0449,0.0553,0.0292,0.0259,0.0196,0.005,0.0047,-0.0036,-0.0033,-0.0032,0.0004,0,0,0,0,0]}]]